Regional Weather Roundup
Issued by NWS

Home | Current Version | Previous Version | Graphics & Text | Print | Product List | Glossary On
Versions: 1 2 3 4 5 6 7 8 9 10 11 12 13 14 15 16 17 18 19 20 21 22 23 24 25 26 27 28 29 30 31 32 33 34 35 36 37 38 39 40 41 42 43 44 45 46 47 48 49 50
000
ASUS43 KLSX 150757
RWRMO

WEATHER SUMMARY FOR MISSOURI
NATIONAL WEATHER SERVICE SPRINGFIELD MO
200 AM CST FRI DEC 15 2017

NOTE: "FAIR" INDICATES FEW OR NO CLOUDS BELOW 12,000 FEET WITH NO
       SIGNIFICANT WEATHER AND/OR OBSTRUCTIONS TO VISIBILITY.
       CURRENT SKY AND/OR WEATHER CONDITIONS ARE NOT AVAILABLE FOR
       CHILLICOTHE AND FARMINGTON.

MOZ001>031-035>038-043-044-053-054-150900-
...NORTHERN AND WESTERN MISSOURI...

CITY           SKY/WX    TMP DP  RH WIND       PRES   REMARKS
KANSAS CTY INT CLOUDY    35  29  78 W5        30.11S
LEE`S SUMMIT   CLOUDY    34  26  72 W6        30.12R WCI  29
ST JOSEPH      CLOUDY    34  30  85 NW5       30.12F WCI  30
CHILLICOTHE      N/A     29  25  85 SW3       30.11F

$$
MOZ066>068-077>081-088>096-101>105-150900-
...SOUTHWEST MISSOURI...

CITY           SKY/WX    TMP DP  RH WIND       PRES   REMARKS
SPRINGFIELD    PTCLDY    28  23  81 SW3       30.10S
JOPLIN         CLOUDY    35  29  78 SW8       30.14R WCI  29

$$
MOZ032>034-039>042-045>050-055>058-069>072-150900-
...CENTRAL MISSOURI...

CITY           SKY/WX    TMP DP  RH WIND       PRES   REMARKS
COLUMBIA       NOT AVBL
JEFFERSON CITY CLOUDY    29  23  78 CALM      30.13R
ROLLA          CLOUDY    30  23  75 S7        30.10R WCI  23
SEDALIA        CLOUDY    32  28  85 CALM      30.12S
WARRENSBURG    PTCLDY    27  23  86 S3        30.12R

$$
MOZ051-052-059>065-150900-
...EAST CENTRAL MISSOURI...

CITY           SKY/WX    TMP DP  RH WIND       PRES   REMARKS
ST LOUIS INTL  CLOUDY    30  21  69 W7        30.11R WCI  23

$$
MOZ072>076-082>087-097>100-106>115-150900-
...SOUTH CENTRAL AND SOUTHEAST MISSOURI...

CITY           SKY/WX    TMP DP  RH WIND       PRES   REMARKS
CAPE GIRARDEAU CLOUDY    31  23  72 W5        30.13R WCI  26
POPLAR BLUFF   CLOUDY    31  25  78 CALM      30.14S
WEST PLAINS    CLOUDY    29  21  72 CALM      30.11S

$$



USA.gov is the U.S. government's official web portal to all federal, state and local government web resources and services.